Location: ????????
(56.1167°N, 38.6333°E)
Time: 14:17:35
(UTC+00:00)

Cosmos 2058 - Visible Passes

Search period start: 14 February 2026 00:00
Search period end: 24 February 2026 00:00
Orbit: 525 x 541 km, 82.5° (Epoch: 13 February)

Date Brightness Start Highest point End Pass type
(mag) Time Alt. Az. Time Alt. Az. Time Alt. Az.
14 Feb 5.7 02:18:02 10° NNE 02:20:43 17° ENE 02:23:23 10° ESE visible
14 Feb 2.7 03:53:21 10° NNW 03:57:16 71° W 04:01:10 10° S visible
14 Feb5.818:03:17N18:03:17N17:54:19SWvisible
15 Feb 5.7 02:08:23 10° NNE 02:10:59 17° ENE 02:13:36 10° E visible
15 Feb 2.7 03:43:39 10° NNW 03:47:35 74° W 03:51:30 10° S visible
15 Feb 3.5 16:09:11 10° SSE 16:12:35 29° E 16:15:59 10° NNE visible
15 Feb 4.3 17:45:01 10° SW 17:48:36 35° WNW 17:52:13 10° N visible
16 Feb 5.8 01:58:44 10° NNE 02:01:16 16° ENE 02:03:48 10° E visible
16 Feb 2.7 03:33:57 10° NNW 03:37:53 77° W 03:41:48 10° S visible
16 Feb 3.6 15:59:32 10° SSE 16:02:53 28° E 16:06:16 10° NNE visible
16 Feb 4.2 17:35:15 10° SW 17:38:52 36° WNW 17:42:32 10° N visible
17 Feb 5.8 01:49:04 10° NNE 01:51:33 16° ENE 01:54:00 10° E visible
17 Feb 2.7 03:24:14 10° NNW 03:28:10 80° W 03:32:06 10° S visible
17 Feb 3.6 15:49:53 10° SSE 15:53:11 27° E 15:56:31 10° NNE visible
17 Feb 4.2 17:25:30 10° SW 17:29:09 38° WNW 17:32:49 10° N visible
18 Feb 5.8 01:39:24 10° NNE 01:41:48 15° ENE 01:44:11 10° E visible
18 Feb 2.7 03:14:31 10° NNW 03:18:27 83° W 03:22:23 10° S visible
18 Feb 3.7 15:40:12 10° SSE 15:43:28 26° E 15:46:45 10° NNE visible
18 Feb 4.1 17:15:45 10° SW 17:19:25 39° WNW 17:23:07 10° N visible
19 Feb 5.9 01:29:45 10° NNE 01:32:03 15° ENE 01:34:21 10° E visible
19 Feb 2.7 03:04:47 10° NNW 03:08:44 87° W 03:12:41 10° S visible
19 Feb 3.7 15:30:33 10° SE 15:33:45 25° E 15:37:00 10° NNE visible
19 Feb 4.1 17:05:59 10° SW 17:09:40 40° WNW 17:13:24 10° N visible
20 Feb 5.9 01:20:04 10° NNE 01:22:17 14° ENE 01:24:31 10° E visible
20 Feb 2.7 02:55:03 10° NNW 02:59:00 90° WSW 03:02:56 10° S visible
20 Feb 3.8 15:20:52 10° SE 15:24:02 24° E 15:27:14 10° NE visible
20 Feb 4.0 16:56:13 10° SW 16:59:55 42° WNW 17:03:40 10° N visible
21 Feb 6.0 01:10:23 10° NNE 01:12:32 14° ENE 01:14:39 10° E visible
21 Feb 2.7 02:45:18 10° NNW 02:49:16 87° E 02:53:12 10° SSE visible
21 Feb 3.9 16:46:26 10° SW 16:50:10 44° WNW 16:53:56 10° N visible
22 Feb 6.0 01:00:42 10° NNE 01:02:45 14° ENE 01:04:47 10° E visible
22 Feb 2.8 02:35:33 10° N 02:39:30 83° ENE 02:43:27 10° SSE visible
22 Feb 3.9 16:36:39 10° SSW 16:40:23 46° WNW 16:44:12 10° N visible
23 Feb 6.0 00:51:02 10° NNE 00:52:58 13° NE 00:54:54 10° E visible
23 Feb 2.8 02:25:47 10° N 02:29:45 80° ENE 02:33:42 10° SSE visible
23 Feb 3.8 16:26:51 10° SSW 16:30:38 48° WNW 16:34:27 10° N visible
